Dewpoint
57 57 57 57 57 57 57 57 57 57 57 57 57 57 57 57 57 56 56 59 60 59 61 62 61 59 59 60 60 63 64 65 66 65 64 64 64 64 63 62 62 62 62
59 59 59 58 58 58 58 57 57 57 57 57 57 57 57 57 57 57 57 57 61 59 60 62 63 62 61 60 59 62 62 64 65 66 65 65 64 64 64 64 64 64 64
60 60 60 59 58 58 58 58 58 58 57 57 57 57 56 56 56 56 57 57 57 59 60 60 62 63 63 63 62 61 63 63 63 64 65 65 65 64 64 64 64 64 64
60 60 59 58 58 58 58 58 58 58 58 58 57 57 56 56 56 56 56 56 56 56 58 60 60 60 62 63 64 63 64 63 63 63 64 64 65 65 65 64 64 64 64
58 58 58 59 59 59 58 58 57 57 56 56 56 56 56 55 56 56 56 56 56 56 56 57 59 59 59 60 62 64 64 64 63 63 63 63 63 64 65 65 64 64 64
57 57 55 52 52 53 52 51 52 52 52 52 51 52 52 53 54 53 54 54 55 56 56 56 56 56 58 58 59 60 62 62 64 64 63 63 63 63 63 64 65 65 65
43 44 44 42 43 43 43 42 43 43 43 44 42 43 45 47 50 48 52 54 52 52 53 55 55 56 56 60 60 59 60 61 62 63 64 64 64 63 63 63 63 64 65
40 39 41 40 41 40 41 41 42 42 41 41 40 41 38 39 40 43 42 40 43 44 47 51 52 54 55 56 57 59 59 59 61 62 62 63 64 64 65 64 63 63 63
38 38 39 39 39 40 39 40 39 41 38 39 39 39 38 37 40 38 38 38 38 42 41 43 45 47 47 49 54 55 57 58 59 60 61 61 63 63 63 64 65 65 64
35 32 33 34 34 34 34 35 32 35 35 35 36 34 39 38 36 36 35 38 38 39 40 41 41 42 43 46 51 54 56 57 59 60 60 61 62 62 63 63 64 65 65
32 28 28 29 29 28 29 30 29 30 31 32 32 34 36 37 36 36 36 32 33 32 34 36 38 40 41 45 46 49 55 55 56 58 60 60 61 62 61 62 65 64 65
26 25 23 23 24 25 25 24 26 29 33 32 31 33 36 36 34 32 29 30 31 30 30 34 37 39 43 43 45 49 50 48 48 49 52 54 56 57 59 61 63 61 62
21 21 21 19 19 21 21 22 27 31 34 30 31 33 33 27 26 25 26 29 31 32 34 35 34 35 34 36 38 46 46 47 41 43 48 51 51 52 54 56 57 58 59
17 19 18 16 17 17 17 19 22 26 28 26 24 27 28 24 26 29 32 35 35 34 32 30 31 28 27 31 37 45 36 41 42 42 46 43 42 50 51 50 53 55 55
12 14 15 15 15 15 15 18 18 17 19 20 21 24 23 24 28 29 30 34 33 30 29 30 28 23 24 27 32 35 34 37 41 39 40 43 46 49 51 52 51 53 55
13 13 12 12 12 12 12 13 14 15 15 18 19 21 23 24 26 25 25 24 25 26 25 24 25 24 25 25 34 33 30 37 40 39 38 41 44 46 47 48 51 52 53
11 10 10 10 9 10 10 11 11 13 16 18 20 21 22 25 22 20 22 21 22 23 26 26 27 27 26 28 29 28 31 30 32 36 37 41 41 44 46 48 46 48 50
10 10 10 9 9 10 11 10 11 14 16 18 19 21 21 19 21 21 20 21 24 25 27 29 27 26 26 26 28 28 27 26 28 31 34 36 38 41 44 45 47 46 47
10 10 11 10 10 12 12 12 11 15 18 19 20 20 21 21 20 21 22 24 25 25 29 29 27 28 28 28 27 28 28 27 25 33 34 34 36 37 40 43 44 43 45
11 12 11 11 12 11 12 10 16 19 19 20 21 22 21 21 21 22 23 24 27 27 27 28 29 29 28 28 28 27 26 28 29 28 32 34 37 39 40 40 43 43 46
12 13 13 11 11 12 7 18 21 21 21 21 21 20 21 24 28 27 25 28 29 27 29 29 29 26 24 24 25 27 29 28 29 32 33 35 37 38 38 38 39 40 43
13 13 12 11 10 9 21 25 26 23 22 21 20 19 19 23 24 29 31 30 28 28 29 30 26 23 23 25 27 26 28 28 27 31 33 32 33 33 35 35 37 40 43
13 13 11 11 10 12 21 26 28 23 22 20 19 19 18 17 25 26 27 28 30 35 32 25 24 25 27 26 27 29 30 30 29 29 31 30 32 34 35 35 39 40 41
12 11 10 11 13 11 22 25 28 22 20 19 19 19 19 22 26 24 24 28 32 24 24 21 23 26 29 31 29 28 30 31 32 32 32 32 34 33 35 36 37 40 41
12 11 12 12 12 12 22 25 25 21 19 19 19 19 23 24 25 27 28 32 26 23 22 25 28 29 28 28 28 28 30 28 29 29 33 32 33 34 35 35 35 36 39
12 12 11 11 16 13 22 25 25 21 20 19 21 23 26 23 26 30 29 21 25 21 23 25 24 23 24 25 28 27 30 28 28 27 32 31 32 31 29 35 37 36 37
Lifted_Index
4 4 5 5 5 5 5 5 5 4 4 4 4 5 5 5 5 5 5 5 5 6 6 6 6 7 7 7 6 5 4 3 2 2 2 2 2 2 3 3 3 3 3
4 4 4 5 5 5 5 4 4 4 4 4 4 4 5 5 5 5 5 5 5 5 5 6 6 6 6 6 6 5 4 3 2 1 1 2 2 2 2 2 2 2 2
3 4 4 4 4 4 4 4 3 3 4 4 4 4 4 4 4 5 5 5 5 5 5 5 5 5 5 5 4 4 3 3 2 1 1 1 1 1 1 1 1 1 1
3 3 3 3 3 3 3 3 3 4 4 4 4 4 5 5 5 5 5 5 5 5 5 5 5 5 5 4 4 3 2 2 2 2 1 1 0 0 1 1 1 1 0
3 3 3 3 3 4 4 4 5 5 5 5 6 6 6 6 5 5 5 5 5 5 5 5 5 5 5 4 4 3 2 2 2 1 1 1 1 0 0 -0 -0 -0 -0
4 4 5 5 6 7 7 8 8 8 8 8 8 8 8 7 6 6 5 5 5 5 5 5 5 4 4 4 4 4 3 3 2 1 1 1 1 1 0 -0 -0 -1 -1
7 8 9 9 10 11 11 11 11 11 11 11 11 11 10 9 8 8 7 7 6 6 5 5 4 4 4 4 4 4 4 3 3 2 1 1 1 0 0 -0 -0 -1 -1
11 11 12 12 12 13 13 13 13 13 13 13 13 13 12 11 11 10 10 10 9 8 7 6 5 5 5 4 4 4 4 4 3 3 2 1 1 0 -0 -0 -1 -1 -1
12 12 13 13 13 13 13 14 15 15 15 15 15 15 14 14 13 13 13 12 11 10 10 9 8 7 7 6 5 4 4 4 4 3 3 2 1 1 -0 -1 -1 -1 -1
12 13 13 13 14 14 15 16 17 18 17 17 17 16 15 15 15 15 14 14 13 12 12 11 11 10 9 8 7 6 5 4 4 3 3 2 2 1 -0 -1 -2 -2 -2
12 13 14 15 16 17 18 19 20 20 19 19 18 17 16 16 15 16 16 16 15 15 14 14 13 12 11 10 9 7 6 5 4 4 3 2 1 0 0 -1 -2 -2 -2
13 13 15 16 18 19 20 21 21 21 20 20 19 18 17 17 17 17 17 17 17 16 16 15 14 13 12 11 10 9 7 6 6 5 4 3 2 1 1 0 -0 -0 -1
13 14 16 18 20 21 22 22 22 21 20 20 20 19 18 19 19 19 18 17 17 16 16 16 15 14 13 12 10 8 7 7 7 7 6 5 4 3 2 3 3 2 2
15 17 19 21 22 22 22 22 22 21 21 21 20 20 20 20 20 19 18 17 16 16 17 16 16 14 13 11 9 8 7 7 7 7 7 6 5 4 3 4 4 4 3
18 20 21 22 22 22 22 22 21 21 21 21 21 21 21 20 19 19 18 17 15 15 16 16 15 14 12 10 8 7 7 8 8 8 8 7 6 4 3 3 4 4 4
21 21 22 22 22 22 22 21 21 21 21 21 21 21 21 20 20 19 18 16 15 14 14 14 13 13 11 10 9 8 8 8 8 8 8 7 6 4 4 3 4 3 3
22 22 22 22 22 21 21 21 21 21 21 22 21 21 21 20 19 18 17 16 14 13 13 13 13 12 11 10 9 9 9 9 9 9 9 8 7 6 5 4 4 4 4
22 22 22 21 21 21 21 21 21 22 22 22 21 21 20 19 18 17 15 14 14 13 12 12 12 12 11 11 10 10 9 9 9 10 10 9 8 7 6 5 5 5 4
22 22 21 21 21 21 21 21 22 22 22 21 21 20 19 17 16 15 14 14 13 13 12 11 11 11 11 10 10 10 9 10 10 10 10 10 9 8 7 6 6 5 5
21 21 20 20 20 20 21 21 22 22 21 21 20 18 17 15 15 14 14 13 13 12 11 11 11 11 10 10 10 9 9 9 9 9 10 9 9 8 8 7 7 6 5
20 20 20 20 20 20 21 21 22 21 21 19 18 16 15 15 14 14 13 13 12 12 11 11 11 11 10 10 9 8 8 8 8 9 9 9 9 9 8 8 8 7 6
19 19 19 20 20 21 21 21 21 21 19 18 16 15 15 14 14 13 13 12 12 11 11 11 11 11 11 10 9 8 8 7 8 8 8 9 9 9 9 9 9 8 7
19 19 19 20 20 21 21 21 20 19 17 16 15 15 14 14 14 13 13 12 12 11 11 11 11 11 11 10 10 9 8 8 7 7 8 9 9 10 10 10 10 9 8
19 19 20 20 21 21 21 20 18 17 15 15 14 14 14 14 13 13 13 12 12 12 12 12 11 11 11 11 10 10 9 8 8 7 8 8 9 10 10 10 10 9 8
19 20 20 20 20 20 19 18 17 15 15 14 14 14 14 13 13 12 12 12 13 13 12 12 11 11 11 11 11 10 10 9 8 7 8 8 9 10 10 11 10 10 9
20 20 20 21 20 19 18 17 15 15 15 14 14 14 13 13 13 12 12 13 13 13 13 12 11 11 12 12 11 11 10 9 8 8 8 9 10 10 10 10 10 9 9